Location: Gardena
(33.8883°N, 118.3090°W)
Time: 17:02:24
(UTC+00:00)

Daily predictions for brighter satellites

Satellite Brightness Start Highest point End
(mag) Time Altitude Azimuth Time Altitude Azimuth Time Altitude Azimuth
Lacrosse 5 rocket 3.6 12:05:34 11° NNW 12:05:34 11° NNW 12:06:28 10° NNW
Cosmos 1908 Rocket 3.7 12:02:18 10° NNW 12:06:18 49° W 12:06:18 49° W
STARLINK-1011 4.5 12:05:03 30° S 12:06:32 44° SE 12:10:30 10° ENE
STARLINK-1036 4.3 12:09:50 30° S 12:11:30 50° SE 12:15:31 10° NE
CZ-2C R/B 2.1 12:06:59 10° N 12:11:35 84° WNW 12:14:44 20° SSW
Cosmos 2082 4.2 12:07:45 10° S 12:13:18 59° ESE 12:18:56 10° NNE
Cosmos 2142 Rocket 4.4 12:07:30 10° N 12:13:50 71° W 12:20:04 10° S
Cosmos 1544 4.2 12:11:05 10° N 12:14:34 45° E 12:18:04 10° SSE
Okean 1-7 3.5 12:15:09 38° W 12:15:12 38° W 12:19:17 10° N
STARLINK-1044 4.1 12:14:35 29° SSW 12:16:27 57° SE 12:20:31 10° NE
Cosmos 2333 Rocket 2.6 12:11:49 10° NW 12:16:56 36° WSW 12:22:02 10° S
GPS 2-04 Rocket1 2.5 12:16:50 44° WNW 12:17:58 83° N 12:21:41 10° E
Cosmos 1515 3.5 12:17:05 36° SSW 12:18:25 65° W 12:22:12 10° N
STARLINK-1047 3.9 12:19:22 28° SSW 12:21:24 64° SE 12:25:30 10° NE
STARLINK-1037 3.8 12:21:20 27° SSW 12:23:25 68° SE 12:27:32 10° NE
Okean 1 4.4 12:23:56 27° WNW 12:23:56 27° WNW 12:26:53 10° NNW
Cosmos 1743 3.1 12:20:05 10° NNW 12:23:44 40° W 12:24:45 33° SW
ATLAS 3B R/B 4.3 12:18:08 10° S 12:23:54 31° ESE 12:29:37 10° NE
IDEFIX/ARIANE 42P 3.8 12:20:59 10° NNW 12:24:49 21° WNW 12:25:10 21° WNW
STARLINK-1027 3.7 12:22:44 27° SW 12:24:56 76° SE 12:29:11 10° NE
USA 238 DEB 3.6 12:21:55 21° SW 12:26:26 67° WNW 12:33:13 10° NNE
USA 238 3.6 12:22:00 21° SW 12:26:33 67° WNW 12:33:20 10° NNE
CZ-4B R/B 3.7 12:29:00 13° NW 12:29:00 13° NW 12:29:34 10° NW
Yuri Rocket 4.3 12:27:23 23° SW 12:28:29 25° SSW 12:32:32 10° SE
Cosmos 1689 Rocket 2.2 12:28:24 28° SSW 12:29:37 47° W 12:32:33 10° NNW
STARLINK-1059 3.6 12:28:58 24° SW 12:31:22 81° SE 12:35:31 10° NE
Cosmos 1975 2.7 12:27:35 10° NNW 12:31:34 67° W 12:35:32 10° S
CZ-4B R/B 3.8 12:28:30 10° NNE 12:32:33 84° ESE 12:36:24 10° S
SL-4 R/B 2.3 12:29:49 10° NW 12:33:53 69° NE 12:38:18 10° SE
STARLINK-1057 3.5 12:33:45 22° SW 12:36:20 90° WNW 12:40:29 10° NE
Meteor 2-4 Rocket 3.8 12:30:34 10° S 12:36:27 79° W 12:42:25 10° N
STARLINK-1034 3.5 12:38:31 20° SW 12:41:18 81° NW 12:45:27 10° NE
USA 234 3.6 12:35:17 10° SSE 12:41:20 41° SW 12:47:26 10° WNW
Meteor 1-13 Rocket 4.4 12:37:46 10° S 12:43:38 81° E 12:49:24 10° N
ATLAS CENTAUR R/B 2.2 12:43:53 16° NW 12:43:53 16° NW 12:45:02 10° N
Cosmos 2237 Rocket 2.1 12:39:34 10° NNW 12:45:13 70° WSW 12:50:51 10° S
Cosmos 389 Rocket 2.7 12:42:21 10° SSW 12:45:51 49° W 12:49:21 10° N
STARLINK-1068 3.6 12:43:19 18° SW 12:46:18 72° NW 12:50:25 10° NE
Cosmos 1300 Rocket 3.8 12:42:27 10° N 12:46:45 72° E 12:51:02 10° SSE
ADEOS 4.4 12:45:33 10° N 12:50:02 30° WNW 12:54:19 11° SW
Cosmos 1484 Rocket 2.6 12:49:18 10° N 12:53:08 73° WNW 12:56:54 10° SSW
Nadezhda 4 Rocket 4.0 12:48:37 10° SSW 12:54:48 61° W 13:01:05 10° N
STARLINK-1031 3.9 12:52:17 15° WSW 12:55:31 51° NW 12:59:35 10° NE
STARLINK-1060 3.8 12:52:53 14° WSW 12:56:15 58° NW 13:00:20 10° NE
NOSS 3-2 (A) 3.9 12:51:46 14° WSW 12:56:17 39° NW 13:02:07 10° NNE
GENESIS II 4.5 12:53:27 11° SW 12:57:16 53° WNW 13:01:17 10° NNE
Cosmos 1378 Rocket 4.2 12:53:45 10° S 12:57:58 59° E 13:02:13 10° NNE
H-2A R/B 2.4 12:54:02 10° N 12:58:09 64° WNW 13:02:05 10° SSW
CZ-4B R/B 3.1 12:55:07 10° N 12:59:16 60° WNW 13:03:35 10° SSW
METEOR-M 4.3 12:54:18 10° NNE 12:59:39 78° ESE 13:04:59 10° S
STARLINK-1030 3.9 12:57:39 13° WSW 13:01:13 52° NW 13:05:16 10° NE
Cosmos 2297 Rocket 3.3 12:57:25 12° WSW 13:01:31 26° WNW 13:06:12 10° N
NOSS 0 Rocket 4.5 12:56:18 10° NW 13:01:45 34° WSW 13:07:12 10° SSW
Cosmos 1048 Rocket 4.0 12:59:12 10° NNW 13:04:30 71° WSW 13:09:49 10° S
ATLAS 5 CENTAUR R/B 2.0 12:57:28 10° SW 13:04:40 69° WNW 13:07:21 10° NNE
Cosmos 1125 Rocket 4.1 13:00:13 10° SW 13:05:04 37° WNW 13:09:59 10° N
STARLINK-1020 4.1 13:02:27 11° WSW 13:06:13 46° NW 13:10:13 10° NNE
Cosmos 2263 Rocket 4.1 13:02:11 10° SSE 13:07:08 32° ESE 13:12:07 10° NE
Cosmos 494 Rocket 4.4 13:02:58 10° NNW 13:08:14 70° ENE 13:13:28 10° SSE
STARLINK-1052 4.2 13:07:18 10° WSW 13:11:14 42° NW 13:15:11 10° NNE
COSMOS 2428 4.4 13:18:41 10° W 13:19:13 10° W 13:19:44 10° WSW
NOSS 3-2 (C) 3.9 13:16:49 10° WSW 13:22:07 41° NW 13:28:02 10° NNE
Centaur D-1A AC-31 4.2 13:50:27 10° WSW 14:49:57 60° S 14:56:11 10° E
